User: anonymous   Login
Location: Go�ngahuizen
(53.0821°N, 5.8849°E)
Time: 13:37:07
(UTC+00:00)
Language:

FALCON 9 DEB - Orbit

View from above orbital plane
View from above orbital plane
View from above satellite
View from above satellite

Ground track
Ground track

The orbit data is extracted from the following two-line orbital elements,

1 44295U 19029BN  20188.72685825 +.00001163 +00000-0 +34579-4 0  9990
2 44295 053.0033 028.2815 0010657 122.7567 237.4466 15.43746878064471
Epoch (UTC): 06 July 2020 17:26:40
Eccentricity: 0.0010657
inclination: 53.0033°
perigee height: 428 km
apogee height: 442 km
right ascension of ascending node: 28.2815°
argument of perigee: 122.7567°
revolutions per day: 15.43746878
mean anomaly at epoch: 237.4466°
orbit number at epoch: 6447

The dashed part of the orbit path shows where the satellite is in the earth's shadow,  

DLR